Weather History for KBFI - September, 2012

Change the Weather History Date:

Monday, September 24, 2012

  Actual Average Record
Temperature  
Mean Temperature 59 °F -  
Max Temperature 69 °F 66 °F 89 °F (1974)
Min Temperature 50 °F 50 °F 38 °F (1948)
Degree Days  
Heating Degree Days 6    
Growing Degree Days 9 (Base 50)    
Moisture  
Dew Point 50 °F    
Average Humidity 71    
Maximum Humidity 93    
Minimum Humidity 47    
Precipitation  
Precipitation 0.00 in - - ()
Sea Level Pressure  
Sea Level Pressure 30.12 in    
Wind  
Wind Speed 1 mph (NE)    
Max Wind Speed 6 mph    
Max Gust Speed -    
Visibility 10 miles    
Events      
Averages and records for this station are not official NWS values.
T = Trace of Precipitation, MM = Missing Value Source: NWS Daily Summary

Daily Weather History Graph

Daily Weather History Graph

Search for Another Location

Airport or City:

Trip Planner

Search our weather history database for the weather conditions in past years. The results will help you decide how hot, cold, wet, or windy it might be!

Date:

Astronomy

Sep. 24, 2012 Rise Set
Actual Time 6:59 AM PDT 7:01 PM PDT
Civil Twilight 6:28 AM PDT 7:32 PM PDT
Nautical Twilight 5:52 AM PDT 8:08 PM PDT
Astronomical Twilight 5:15 AM PDT 8:45 PM PDT
Moon 4:09 PM PDT (9/24) 1:01 AM PDT (9/24)
Length of Visible Light 13h 03m
Length of Day
12h 02m
Waxing Gibbous, 71% of the Moon is Illuminated
Sep 24
Waxing Gibbous
Sep 29
Full
Oct 8
Last Quarter
Oct 15
New
Oct 21
First Quarter

Hourly Weather History & Observations

Time (PDT) Temp. Dew Point Humidity Pressure Visibility Wind Dir Wind Speed Gust Speed Precip Events Conditions
12:53 AM 55.0 °F 50.0 °F 83% 30.13 in 10.0 mi Calm Calm - N/A   Clear
1:53 AM 55.0 °F 51.1 °F 86% 30.13 in 10.0 mi Calm Calm - N/A   Clear
2:53 AM 53.1 °F 50.0 °F 89% 30.13 in 10.0 mi Calm Calm - N/A   Clear
3:53 AM 52.0 °F 48.9 °F 89% 30.13 in 10.0 mi Calm Calm - N/A   Clear
4:53 AM 50.0 °F 48.0 °F 93% 30.14 in 10.0 mi Calm Calm - N/A   Clear
5:53 AM 51.1 °F 48.9 °F 92% 30.13 in 10.0 mi Calm Calm - N/A   Clear
6:53 AM 51.1 °F 48.0 °F 89% 30.14 in 10.0 mi SE 3.5 mph - N/A   Clear
7:53 AM 51.1 °F 48.0 °F 89% 30.15 in 6.0 mi SE 3.5 mph - N/A   Clear
8:53 AM 54.0 °F 51.1 °F 90% 30.14 in 10.0 mi SSE 3.5 mph - N/A   Partly Cloudy
9:53 AM 57.0 °F 51.1 °F 81% 30.14 in 5.0 mi Calm Calm - N/A   Haze
10:53 AM 61.0 °F 51.1 °F 70% 30.14 in 7.0 mi Calm Calm - N/A   Clear
11:53 AM 63.0 °F 50.0 °F 63% 30.14 in 10.0 mi Variable 3.5 mph - N/A   Clear
12:53 PM 66.0 °F 48.9 °F 54% 30.13 in 10.0 mi Calm Calm - N/A   Partly Cloudy
1:53 PM 68.0 °F 50.0 °F 52% 30.12 in 10.0 mi Variable 3.5 mph - N/A   Mostly Cloudy
2:53 PM 66.9 °F 48.9 °F 52% 30.11 in 10.0 mi Variable 3.5 mph - N/A   Clear
3:53 PM 66.9 °F 46.9 °F 49% 30.09 in 10.0 mi Variable 3.5 mph - N/A   Mostly Cloudy
4:53 PM 68.0 °F 46.9 °F 47% 30.09 in 10.0 mi WNW 5.8 mph - N/A   Mostly Cloudy
5:53 PM 66.9 °F 48.0 °F 51% 30.09 in 10.0 mi NNW 4.6 mph - N/A   Mostly Cloudy
6:53 PM 66.0 °F 48.9 °F 54% 30.09 in 10.0 mi Variable 3.5 mph - N/A   Mostly Cloudy
7:53 PM 64.0 °F 50.0 °F 60% 30.10 in 10.0 mi Variable 3.5 mph - N/A   Mostly Cloudy
8:53 PM 63.0 °F 52.0 °F 67% 30.11 in 10.0 mi North 4.6 mph - 0.00 in   Overcast
9:53 PM 63.0 °F 52.0 °F 67% 30.11 in 10.0 mi Calm Calm - N/A   Overcast
10:53 PM 63.0 °F 52.0 °F 67% 30.11 in 10.0 mi Calm Calm - N/A   Overcast
11:53 PM 62.1 °F 53.1 °F 72% 30.10 in 10.0 mi North 3.5 mph - N/A   Overcast